Wind_Speed
43 44 45 45 46 48 50 51 52 51 50 52 52 51 50 48 46 42 40 41 41 39 38 38 39 39 39 39 39 39 39 39 39 39 39 39 39 39 39 40 40 40 41 42
46 45 47 48 48 49 51 52 52 53 52 53 53 53 52 50 48 45 44 43 43 41 40 40 40 40 41 41 40 40 40 40 40 41 40 40 41 42 42 42 42 42 43 44
48 47 48 48 48 48 49 50 51 52 52 53 54 56 54 52 51 50 48 45 43 42 42 42 42 43 43 44 44 44 44 44 44 44 44 44 44 44 44 44 44 44 44 45
45 44 44 46 45 46 46 47 48 50 51 53 53 57 55 55 57 58 56 51 47 45 44 43 43 44 45 46 47 47 48 48 48 49 49 49 49 49 49 48 48 48 48 48
42 42 42 43 44 45 46 47 47 48 51 54 54 57 60 60 61 61 60 57 54 51 48 46 45 44 45 46 47 49 50 52 53 53 54 54 54 54 54 54 53 53 53 53
44 45 44 45 45 45 47 49 51 51 53 57 56 58 60 61 61 61 61 60 58 55 51 47 44 46 48 49 50 52 54 55 57 58 59 59 59 59 59 59 59 59 58 58
47 47 48 48 49 49 49 50 53 55 57 58 58 61 62 61 61 62 62 62 60 56 51 48 46 48 51 53 55 57 58 59 60 61 62 63 63 64 64 64 65 65 64 64
50 51 52 53 52 52 52 52 52 55 58 59 58 60 60 60 62 63 63 62 60 58 54 52 52 53 57 59 61 62 62 63 63 64 65 65 66 67 67 68 68 69 68 68
52 53 54 54 54 53 52 51 52 54 56 58 60 60 59 59 60 62 62 62 61 59 58 57 58 60 63 65 66 66 66 66 65 66 66 67 68 69 69 70 71 71 71 71
53 54 53 52 52 52 51 50 50 52 55 58 58 57 58 59 60 60 60 61 62 63 63 64 64 66 68 69 70 70 70 69 68 68 68 68 69 70 70 71 72 73 73 74
52 52 52 51 49 49 50 50 51 53 55 57 58 56 56 57 58 59 60 61 63 65 66 68 69 70 71 72 72 73 72 71 71 71 72 72 72 72 72 72 73 74 75 76
52 52 52 51 49 49 51 51 52 54 57 57 59 58 54 55 57 59 60 62 63 65 67 68 70 71 72 72 74 74 75 75 75 76 76 76 77 77 77 77 77 77 78 79
53 53 55 55 53 53 54 54 55 57 59 59 60 61 57 56 57 58 61 62 64 66 68 70 72 74 75 75 76 78 79 80 81 82 82 82 83 83 82 82 81 82 82 82
54 55 56 56 55 56 57 57 58 59 62 63 63 63 61 61 62 63 65 67 69 71 72 74 76 78 80 81 82 84 85 86 87 88 89 89 89 89 88 88 88 87 87 87
56 57 57 58 57 59 60 61 60 62 64 67 68 67 66 67 70 71 73 75 77 79 81 82 84 86 88 89 91 93 94 95 96 96 97 97 97 97 96 96 95 95 95 95
59 61 61 62 61 63 66 64 63 65 66 69 71 72 73 74 75 76 78 79 81 82 84 85 87 89 91 93 95 97 98 99 100 100 101 102 102 102 102 102 102 102 101 101
62 64 66 67 65 69 70 65 67 69 70 71 74 75 76 77 78 78 78 77 78 79 80 80 81 83 85 87 89 92 93 95 97 98 98 99 100 102 102 104 104 105 105 105
64 65 69 71 70 73 70 69 71 73 73 74 76 77 76 76 75 73 71 71 71 70 69 70 71 73 74 77 79 81 83 85 87 89 91 92 94 96 97 99 101 103 106 107
64 66 69 71 74 77 73 71 73 76 77 76 75 74 72 71 69 65 63 63 62 60 60 61 62 63 65 67 69 71 73 75 78 80 82 85 87 90 92 94 95 97 100 101
65 67 70 72 75 78 76 75 75 76 77 71 68 67 66 64 63 58 55 54 54 54 54 55 56 59 62 64 65 67 69 72 74 76 79 81 83 86 88 89 90 91 93 94
66 69 71 73 75 78 77 75 73 70 69 66 64 61 59 57 55 53 51 51 51 52 53 54 55 58 61 63 65 67 69 72 74 75 77 79 82 84 85 86 87 88 89 90
69 70 71 72 75 77 73 70 65 62 61 59 57 55 54 54 52 52 52 52 52 53 54 56 57 59 62 64 66 67 69 72 73 75 77 79 80 81 82 82 82 83 83 83
70 69 71 74 74 71 67 63 59 57 56 54 53 52 52 52 52 52 52 53 54 55 56 57 59 60 62 64 66 67 69 72 73 75 76 76 75 75 74 73 71 70 70 71
70 69 70 70 67 61 56 55 54 53 53 52 52 51 51 52 52 53 53 54 55 56 57 58 59 60 61 62 64 66 68 70 71 71 70 68 65 63 61 60 59 59 60 61
68 67 66 64 60 55 53 51 51 52 52 51 51 50 51 52 52 53 54 55 55 57 58 59 59 59 59 59 61 64 66 66 65 63 60 57 54 52 50 51 52 53 54 56
62 58 57 58 53 54 53 50 50 51 52 51 51 51 51 52 53 53 54 55 56 57 58 58 57 56 56 57 59 61 60 58 56 53 50 46 44 44 44 45 46 49 50 51
Wind_Direction
278 279 281 281 281 283 284 285 285 286 287 287 289 290 291 293 294 294 292 289 288 288 287 285 283 281 280 279 279 279 278 277 275 274 272 271 271 270 271 270 267 264 261 260
277 277 278 280 281 281 282 284 285 286 287 288 289 289 291 292 293 293 290 288 289 289 287 284 282 281 280 279 278 277 277 276 274 273 271 270 269 268 268 269 269 267 265 263
276 277 277 277 277 278 280 282 284 285 286 287 289 289 291 294 294 292 290 290 290 288 285 281 279 278 277 277 277 277 276 275 274 272 271 270 269 267 266 266 266 266 266 265
275 275 275 277 279 280 281 282 284 286 287 288 290 290 292 295 295 294 296 298 297 293 289 285 281 277 275 274 274 274 274 273 272 272 271 270 269 268 266 265 265 265 265 265
275 276 277 279 281 283 284 284 285 286 287 288 290 291 293 295 296 298 301 303 302 301 298 293 287 282 278 275 273 272 271 271 270 270 269 269 268 268 267 266 265 265 264 265
278 279 280 281 282 283 285 286 287 287 286 287 289 290 291 293 296 298 299 300 301 300 299 295 287 282 281 278 276 274 273 271 270 269 269 268 268 267 266 266 266 265 264 263
278 280 281 282 283 283 284 286 287 286 286 287 289 289 291 293 295 295 296 297 297 297 295 291 284 279 278 278 277 277 276 274 272 271 270 269 268 267 266 266 265 265 265 264
279 279 279 281 282 284 285 286 286 285 286 286 286 287 291 292 292 293 293 293 294 293 291 286 282 278 277 277 277 278 277 276 274 272 271 270 269 268 267 266 266 265 265 264
280 279 281 282 284 286 286 286 285 285 285 285 287 290 290 291 291 291 292 292 291 290 287 284 281 278 277 278 277 277 277 276 274 271 270 268 267 266 266 266 266 266 265 264
280 280 282 284 285 285 285 285 285 285 286 286 287 289 290 290 289 288 287 286 285 284 283 282 280 278 277 277 276 276 276 275 273 271 268 266 264 263 263 264 264 265 265 265
280 279 281 281 282 283 282 282 283 283 283 284 285 286 289 288 287 286 284 283 282 281 280 279 278 277 276 276 275 275 275 274 273 271 269 267 265 264 263 263 263 263 264 264
281 279 280 282 283 282 282 284 285 284 285 285 284 286 289 286 284 282 280 279 278 277 277 277 277 276 275 275 274 274 273 272 271 269 267 265 265 265 265 265 264 264 263 263
280 279 281 283 284 283 282 283 284 284 284 284 284 287 289 285 283 281 280 279 278 277 277 277 277 277 275 274 272 272 271 270 269 268 266 266 266 267 268 268 267 267 267 267
277 277 279 282 284 283 283 284 286 285 284 285 285 287 287 286 283 282 280 280 279 278 278 277 276 275 274 273 272 271 271 270 270 269 269 270 270 270 270 271 271 271 270 270
274 275 276 278 279 278 278 280 282 282 283 284 286 285 285 283 282 282 281 281 280 279 278 277 276 274 273 272 272 272 272 273 272 272 273 273 273 273 273 274 273 273 273 273
274 275 275 276 277 277 277 281 283 283 283 284 285 285 285 285 285 284 284 283 282 281 280 278 277 276 274 273 272 272 273 274 274 275 275 275 275 276 276 275 275 274 274 274
274 275 276 276 277 277 279 284 283 282 284 285 286 287 287 287 287 287 286 284 283 282 281 280 279 278 278 278 277 276 276 276 276 276 277 277 277 277 277 276 276 275 274 273
274 276 278 279 280 279 284 285 285 286 286 286 287 288 289 289 289 289 287 285 285 284 283 282 281 281 280 280 280 280 280 280 280 279 279 279 279 278 278 278 277 276 276 275
275 278 280 282 284 284 286 288 287 288 288 289 290 290 290 289 289 288 287 287 287 286 284 283 283 282 282 282 282 282 282 282 282 282 282 281 281 280 279 278 278 277 276 275
275 277 280 283 284 286 289 289 289 290 289 292 290 289 289 289 288 289 288 288 288 287 287 286 285 285 284 284 285 285 285 285 284 284 284 283 283 282 281 281 280 278 277 276
277 279 282 284 286 287 290 291 291 290 293 291 290 289 288 288 289 289 288 288 288 288 288 288 288 287 287 287 287 287 287 287 287 287 286 286 285 285 284 283 282 281 279 278
280 281 284 285 285 288 291 290 291 291 291 290 290 289 288 288 289 290 291 291 291 291 291 291 290 290 290 290 291 291 291 291 291 290 290 290 289 289 288 287 286 285 283 282
281 284 285 285 286 289 291 291 291 290 289 289 289 289 289 290 291 291 292 292 293 293 293 293 293 293 294 294 294 295 295 294 294 294 294 294 294 293 293 292 291 289 288 286
282 284 284 284 285 287 286 286 288 288 288 288 289 289 290 291 292 292 293 294 294 294 295 295 296 296 296 297 297 297 297 298 298 298 299 299 299 298 297 297 296 295 293 291
284 286 286 285 287 285 283 285 285 286 287 289 289 289 290 290 291 293 294 295 295 296 297 297 297 297 297 298 300 300 301 301 302 303 303 303 303 303 302 302 301 300 299 298
284 285 283 283 285 285 286 285 285 287 288 288 288 289 289 291 293 294 295 295 296 297 297 297 297 297 299 301 302 303 304 305 306 307 307 308 309 309 309 308 307 307 306 305
Height
5798 5798 5797 5797 5796 5794 5792 5790 5788 5788 5788 5786 5785 5785 5786 5786 5787 5789 5788 5785 5784 5785 5784 5783 5781 5780 5779 5779 5778 5778 5777 5777 5776 5776 5776 5775 5775 5775 5775 5775 5774 5775 5775 5775
5788 5788 5787 5785 5785 5783 5782 5780 5779 5778 5777 5775 5774 5774 5775 5776 5777 5777 5777 5775 5775 5775 5775 5773 5772 5771 5770 5769 5768 5768 5768 5767 5767 5766 5766 5765 5765 5765 5765 5765 5764 5764 5764 5764
5777 5778 5775 5775 5774 5773 5772 5771 5770 5768 5766 5765 5763 5762 5763 5764 5763 5763 5764 5765 5766 5765 5764 5763 5762 5761 5760 5759 5758 5757 5757 5756 5756 5756 5756 5755 5754 5754 5754 5754 5754 5753 5753 5753
5767 5767 5766 5764 5763 5763 5763 5762 5760 5758 5756 5754 5754 5750 5753 5752 5749 5747 5748 5750 5751 5752 5752 5751 5750 5750 5749 5748 5747 5746 5745 5744 5744 5743 5743 5743 5743 5742 5742 5742 5742 5741 5741 5740
5757 5757 5757 5756 5755 5753 5752 5751 5751 5749 5746 5745 5744 5741 5742 5738 5735 5734 5734 5733 5734 5734 5735 5736 5736 5736 5736 5735 5734 5733 5732 5731 5730 5729 5729 5729 5729 5729 5728 5728 5728 5729 5728 5727
5746 5746 5746 5746 5745 5744 5742 5740 5739 5737 5736 5735 5735 5732 5731 5729 5727 5725 5723 5721 5720 5720 5719 5719 5720 5720 5720 5720 5720 5719 5718 5717 5716 5715 5714 5713 5713 5713 5713 5713 5713 5713 5713 5713
5735 5735 5735 5734 5733 5733 5732 5730 5727 5724 5722 5723 5723 5720 5721 5720 5717 5715 5712 5709 5707 5705 5705 5705 5705 5704 5703 5703 5703 5703 5703 5701 5700 5699 5698 5696 5696 5696 5696 5695 5695 5695 5695 5696
5723 5723 5723 5722 5722 5721 5719 5717 5715 5711 5710 5710 5711 5710 5712 5709 5704 5701 5699 5696 5694 5692 5691 5690 5689 5688 5687 5685 5684 5684 5684 5684 5683 5681 5680 5679 5678 5677 5677 5676 5676 5675 5675 5676
5709 5708 5709 5709 5708 5708 5704 5703 5700 5695 5693 5694 5697 5698 5698 5695 5691 5688 5685 5682 5679 5678 5676 5675 5673 5672 5669 5668 5666 5664 5663 5662 5662 5661 5661 5660 5659 5658 5657 5656 5655 5655 5655 5655
5694 5695 5696 5696 5696 5693 5691 5689 5687 5681 5677 5676 5680 5685 5684 5679 5676 5675 5673 5669 5666 5663 5660 5658 5656 5654 5651 5649 5647 5645 5643 5641 5640 5640 5639 5638 5637 5637 5636 5636 5635 5634 5633 5633
5680 5680 5683 5684 5684 5681 5678 5677 5674 5669 5664 5661 5660 5669 5669 5665 5660 5657 5655 5652 5649 5646 5643 5640 5638 5635 5633 5630 5627 5625 5623 5621 5619 5618 5617 5616 5616 5615 5614 5614 5613 5613 5612 5612
5664 5663 5665 5670 5671 5666 5662 5662 5660 5654 5650 5646 5640 5646 5652 5649 5644 5640 5638 5635 5632 5628 5625 5621 5618 5616 5613 5610 5607 5605 5602 5600 5598 5597 5595 5594 5593 5592 5591 5591 5590 5590 5590 5589
5649 5648 5648 5652 5657 5651 5648 5647 5646 5640 5634 5630 5626 5629 5631 5630 5626 5622 5619 5616 5613 5610 5606 5602 5599 5596 5593 5590 5587 5584 5581 5579 5576 5574 5572 5570 5568 5567 5567 5566 5565 5565 5565 5565
5634 5633 5634 5635 5638 5633 5629 5630 5630 5624 5617 5613 5612 5612 5613 5610 5606 5603 5601 5598 5594 5591 5587 5583 5580 5576 5572 5568 5564 5561 5557 5554 5552 5549 5546 5544 5543 5542 5541 5540 5539 5538 5538 5539
5620 5619 5618 5617 5619 5616 5613 5615 5616 5610 5604 5597 5595 5594 5595 5592 5587 5584 5581 5577 5573 5569 5565 5561 5557 5552 5548 5544 5540 5536 5532 5528 5524 5522 5519 5517 5515 5514 5513 5512 5511 5510 5510 5510
5605 5603 5601 5602 5603 5596 5594 5599 5599 5593 5589 5583 5577 5574 5573 5568 5565 5562 5558 5554 5549 5544 5539 5534 5529 5524 5520 5516 5512 5508 5505 5501 5497 5494 5491 5488 5486 5485 5484 5482 5481 5481 5480 5479
5590 5586 5582 5582 5585 5576 5577 5586 5579 5573 5571 5566 5558 5555 5550 5546 5542 5538 5533 5528 5523 5518 5514 5509 5503 5498 5493 5488 5483 5480 5477 5473 5470 5466 5464 5460 5457 5455 5453 5450 5449 5448 5447 5447
5575 5570 5562 5561 5562 5556 5568 5564 5559 5553 5550 5547 5539 5532 5528 5523 5519 5514 5508 5502 5499 5496 5492 5487 5481 5476 5471 5465 5460 5456 5452 5447 5443 5439 5436 5433 5428 5425 5422 5419 5416 5414 5411 5411
5559 5554 5546 5542 5538 5534 5545 5547 5538 5529 5525 5526 5518 5511 5506 5501 5498 5495 5487 5482 5480 5477 5473 5468 5463 5458 5451 5445 5441 5437 5432 5426 5421 5416 5412 5407 5402 5397 5394 5390 5387 5383 5378 5377
5544 5539 5533 5527 5520 5515 5524 5522 5515 5507 5501 5504 5496 5491 5486 5482 5479 5480 5472 5467 5463 5459 5455 5451 5447 5440 5433 5428 5424 5419 5414 5407 5401 5396 5390 5384 5378 5371 5366 5361 5357 5352 5347 5344
5528 5522 5518 5512 5502 5497 5503 5497 5491 5485 5483 5479 5476 5472 5468 5464 5462 5461 5457 5453 5449 5445 5440 5436 5431 5424 5417 5412 5407 5401 5395 5388 5381 5375 5369 5362 5354 5346 5339 5333 5327 5321 5316 5312
5508 5505 5503 5496 5486 5484 5482 5475 5471 5466 5461 5457 5455 5453 5450 5448 5446 5444 5440 5436 5432 5429 5424 5420 5414 5408 5401 5394 5388 5382 5375 5367 5361 5353 5346 5337 5329 5320 5312 5304 5298 5291 5285 5280
5489 5490 5483 5475 5470 5468 5461 5455 5452 5449 5446 5443 5440 5438 5434 5432 5430 5428 5425 5421 5416 5412 5407 5402 5397 5391 5384 5376 5369 5362 5355 5346 5339 5331 5322 5313 5305 5296 5287 5278 5272 5265 5258 5252
5470 5473 5463 5454 5451 5452 5448 5441 5437 5434 5430 5428 5426 5424 5421 5417 5415 5412 5409 5405 5400 5395 5390 5385 5379 5374 5367 5359 5352 5343 5335 5327 5318 5310 5301 5291 5283 5275 5267 5258 5251 5244 5237 5231
5452 5451 5442 5434 5434 5432 5431 5430 5425 5420 5417 5414 5412 5409 5406 5403 5400 5397 5393 5389 5384 5379 5373 5368 5362 5357 5350 5343 5336 5326 5317 5309 5300 5292 5283 5275 5266 5258 5251 5243 5234 5227 5219 5210
5436 5432 5424 5418 5419 5414 5412 5413 5411 5406 5403 5400 5397 5395 5392 5389 5386 5382 5377 5373 5368 5363 5357 5352 5346 5341 5335 5328 5320 5311 5303 5294 5285 5278 5269 5261 5253 5246 5238 5231 5223 5212 5203 5195